Погода в Востоке

Россия / Сахалинская область     48°58′50″N   142°54′59″E
темп.,
°C
ветер,
м/с
пор.,
м/с
влажн.,
%
обл.,
%
осадки,
мм/ч
давл.,
гПа
погр.,
м
25 октября, пн
пн2523:00+4з11630 0.0 101979
02:00+5ююз45722 0.0 1020331
05:00+4юз34710 0.0 1019145
08:00+4юз33705 0.0 1019121
11:00+8ююз45640 0.0 1019227
14:00+11юз58630 0.0 1017321
17:00+10ююз45770 0.0 101654
20:00+7юз44841 0.0 101660
26 октября, вт
вт2623:00+6зюз44810 0.0 101785
02:00+5зюз34800 0.0 101680
05:00+6зюз33810 0.0 101672
08:00+6зюз33790 0.0 101764
11:00+9юз33710 0.0 101787
14:00+11ююз45630 0.0 1016315
17:00+10ююз44770 0.0 101543
20:00+8юз34770 0.0 101639
27 октября, ср
ср2723:00+6зюз33730 0.0 101558
02:00+6з22720 0.0 101466
05:00+5зсз11700 0.0 101362
08:00+5сз11725 0.0 101268
11:00+6св1167100 0.0 1012128
14:00+7вюв1167100 0.0 1010169
17:00+6ююв1177100 0.0 100976
20:00+7зсз1181100 0.0 101042
28 октября, чт
чт2823:00+6ссз118047 0.0 101043
02:00+6ссз2278100 0.0 101163
05:00+5с3379100 0.0 1011108
08:00+5с337866 0.0 1013134
11:00+6ссв5572100 0.0 1015249
14:00+8ссв4565100 0.0 1014359
17:00+8св4774100 0.0 1015249
20:00+7св61085100 0.0 1017619
29 октября, пт
пт2923:00+6ссв6982100 0.1 1019566
02:00+5с588797 0.0 1020374
05:00+4с578721 0.0 1020273
08:00+4с45860 0.0 1022217
11:00+5с44790 0.0 1024295
14:00+6всв22720 0.0 1023311
17:00+6ююв22760 0.0 1022170
20:00+5ююз23820 0.0 1023146